Home   Weather   Wismar   Past weeks

Flag for Germany Past Weather in Wismar, Mecklenburg-Western Pomerania, Germany — Yesterday and Last 2 Weeks

Now
28 °F

Ice fog.


Feels Like: 28 °F
Forecast: 33 / 37 °F
Wind: 1 mph from North

Location: Laage

Current Time: Jan 23, 2017 at 5:33:02 am

Latest Report: Jan 23, 2017 at 4:38 am


Visibility: 0 mi

Pressure: 30.24 "Hg

Humidity: 93%

Dew Point: 27 °F

Location of WismarLocation

Past Weather in Wismar — Graph

°F

Wismar Temperature Yesterday

Maximum temperature yesterday: 36 °F (at 12:20 am)
Minimum temperature yesterday: 28 °F (at 7:20 pm)
Average temperature yesterday: 33 °F

High & Low Weather Summary for the Past Weeks

 TemperatureHumidityPressure
High37 °F (Jan 11, 8:20 pm)100% (Jan 8, 4:20 am)30.72 "Hg (Jan 8, 4:20 am)
Low19 °F (Jan 16, 3:20 am)70% (Jan 16, 2:20 pm)29.06 "Hg (Jan 13, 7:08 am)
Average32 °F90%30.09 "Hg
* Reported Jan 8 4:20 am — Jan 23 4:20 am, Wismar, Weather by CustomWeather, © 2017

Note: Actual official high and low records may vary slightly from our data, if they occured in-between our weather recording intervals... More about our weather records

Advertising

Wismar Weather History for the Previous 24 Hours

Scroll right to see more
 ConditionsComfort  
Time TempWeatherWind HumidityBarometerVisibility
4:20 am
Mon, Jan 23
28 °FIce fog.1 mph93%30.24 "Hg0 mi
3:20 am28 °FIce fog.No wind93%30.27 "Hg0 mi
2:20 am28 °FIce fog.3 mph93%30.27 "Hg0 mi
1:20 am28 °FIce fog.3 mph93%30.27 "Hg0 mi
12:20 am28 °FIce fog.2 mph100%30.30 "Hg0 mi
11:20 pm
Sun, Jan 22
28 °FIce fog.3 mph100%30.30 "Hg0 mi
10:20 pm28 °FIce fog.5 mph100%30.30 "Hg0 mi
9:20 pm28 °FIce fog.5 mph100%30.30 "Hg0 mi
8:26 pm28 °FIce fog.6 mph100%30.30 "Hg0 mi
8:00 pm28 °FIce fog.6 mph93%30.30 "Hg1 mi
7:20 pm28 °FChilly.5 mph93%30.30 "Hg4 mi
6:20 pm30 °FChilly.6 mph93%30.33 "HgN/A
5:20 pm32 °FChilly.6 mph87%30.33 "Hg6 mi
4:20 pm34 °FPassing clouds.7 mph87%30.33 "HgN/A
3:20 pm36 °FPassing clouds.5 mph81%30.33 "HgN/A
2:20 pm34 °FScattered clouds.3 mph87%30.33 "HgN/A
1:50 pm34 °FScattered clouds.2 mph87%30.36 "HgN/A
1:20 pm34 °FPartly sunny.5 mph87%30.36 "HgN/A
12:20 pm34 °FLow clouds.5 mph93%30.36 "HgN/A
11:20 am34 °FLow clouds.5 mph87%30.39 "HgN/A
10:42 am34 °FLow clouds.3 mph87%30.42 "HgN/A
10:20 am34 °FLow clouds.5 mph87%30.42 "HgN/A
9:20 am34 °FLow clouds.3 mph87%30.42 "HgN/A
8:50 am34 °FLow clouds.5 mph93%30.42 "HgN/A
8:20 am34 °FLow clouds.3 mph93%30.42 "HgN/A
7:20 am34 °FLow clouds.5 mph93%30.42 "HgN/A
6:47 am34 °FLow clouds.3 mph93%30.42 "Hg5 mi
6:20 am34 °FFog.3 mph93%30.42 "Hg3 mi
5:20 am34 °FFog.2 mph93%30.42 "Hg2 mi
Weather by CustomWeather, © 2017

See weather overviewHow to use our weather pages